Location: Navarre
(52.9016°N, 113.4144°W)
Time: 13:42:22
(UTC+00:00)

Envisat - Pass Details

Date: 03 December 2021
Orbit: 764 x 766 km, 98.2° (Epoch: 28 January)

Event Time Altitude Azimuth Distance (km) Brightness Sun altitude
Rises 14:26:50 0° 7° (N) 3,249 6.1 -8.6°
Reaches altitude 10° 14:29:40 10° 351° (N) 2,318 5.2 -8.2°
Maximum altitude 14:33:18 20° 305° (NW) 1,717 4.2 -7.7°
Drops below altitude 10° 14:36:55 10° 260° (W) 2,307 5.0 -7.2°
Sets 14:39:45 0° 244° (WSW) 3,229 5.9 -6.8°
